WB0YAF-8 Weather Reports


time (UTC)temp
C
wind
direction
speed
KPH
gust
KPH
rain 1hr
cm
rain 24hr
cm
rain mn
cm
humidity
%
barometer
mb
20260505140254 5 135 0.0 0.0 0.00 0.00 0.00 64 1014.8
20260505130254 5 113 0.0 9.7 0.00 0.00 0.00 64 1013.8
20260505124755 5 113 3.2 9.7 0.00 0.00 0.00 63 1013.8
20260505124254 5 135 1.6 8.0 0.00 0.00 0.00 62 1013.8
20260505123755 5 135 0.0 8.0 0.00 0.00 0.00 61 1013.8
20260505123255 5 135 0.0 4.8 0.00 0.00 0.00 60 1013.8
20260505122755 5 135 0.0 0.0 0.00 0.00 0.00 60 1013.8
20260505122253 5 90 0.0 0.0 0.00 0.00 0.00 58 1013.8
20260505121754 5 135 0.0 0.0 0.00 0.00 0.00 57 1013.8
20260505121254 5 158 0.0 8.0 0.00 0.00 0.00 56 1013.8
20260505120755 5 135 0.0 8.0 0.00 0.00 0.00 56 1013.8
20260505120255 6 135 0.0 4.8 0.00 0.00 0.00 55 1013.8
20260505115755 6 135 0.0 0.0 0.00 0.00 0.00 54 1013.8
20260505115255 6 135 0.0 4.8 0.00 0.00 0.00 54 1013.8
20260505114755 6 113 0.0 8.0 0.00 0.00 0.00 54 1013.8
20260505114255 6 135 0.0 0.0 0.00 0.00 0.00 55 1013.8
20260505113754 6 135 0.0 0.0 0.00 0.00 0.00 54 1013.8
20260505113253 6 135 0.0 4.8 0.00 0.00 0.00 55 1013.8
20260505112755 6 135 0.0 0.0 0.00 0.00 0.00 56 1013.8
20260505112254 6 135 0.0 0.0 0.00 0.00 0.00 56 1013.8
20260505111755 6 135 0.0 0.0 0.00 0.00 0.00 56 1013.8
20260505111255 6 113 0.0 0.0 0.00 0.00 0.00 57 1013.8
20260505110754 6 113 0.0 0.0 0.00 0.00 0.00 58 1013.8
20260505110255 6 113 0.0 0.0 0.00 0.00 0.00 58 1013.8
20260505101754 6 45 0.0 4.8 0.00 0.00 0.00 67 1013.8
20260505101254 6 23 0.0 0.0 0.00 0.00 0.00 66 1013.8
20260505100755 6 23 0.0 0.0 0.00 0.00 0.00 66 1013.8
20260505100255 6 23 0.0 0.0 0.00 0.00 0.00 65 1013.8
20260505095755 6 23 0.0 0.0 0.00 0.00 0.00 65 1013.8
20260505095254 6 23 0.0 0.0 0.00 0.00 0.00 65 1013.8
20260505094753 6 23 0.0 0.0 0.00 0.00 0.00 65 1013.8
20260505094255 6 23 0.0 0.0 0.00 0.00 0.00 64 1012.8
20260505093754 6 23 0.0 0.0 0.00 0.00 0.00 64 1012.8
20260505093254 6 23 0.0 0.0 0.00 0.00 0.00 64 1012.8
20260505092754 6 0 0.0 0.0 0.00 0.00 0.00 64 1012.8
20260505092254 6 0 0.0 0.0 0.00 0.00 0.00 64 1012.8
20260505091754 6 0 0.0 0.0 0.00 0.00 0.00 64 1012.8
20260505091254 6 0 0.0 0.0 0.00 0.00 0.00 62 1013.8
20260505090754 6 0 0.0 0.0 0.00 0.00 0.00 63 1013.8
20260505090254 6 0 0.0 0.0 0.00 0.00 0.00 63 1013.8
20260505085754 6 0 0.0 0.0 0.00 0.00 0.00 63 1013.8
20260505085255 6 0 0.0 0.0 0.00 0.00 0.00 62 1013.8
20260505084754 7 0 0.0 0.0 0.00 0.00 0.00 61 1013.8
20260505084254 7 0 0.0 0.0 0.00 0.00 0.00 58 1013.8
20260505083755 7 0 0.0 0.0 0.00 0.00 0.00 57 1013.8
20260505083255 7 0 0.0 4.8 0.00 0.00 0.00 60 1013.8
20260505082755 7 0 0.0 0.0 0.00 0.00 0.00 66 1013.8
20260505082254 7 0 0.0 0.0 0.00 0.00 0.00 66 1013.8
20260505081754 7 0 0.0 0.0 0.00 0.00 0.00 68 1013.8
20260505081253 7 0 0.0 0.0 0.00 0.00 0.00 67 1013.8
20260505080754 7 0 0.0 0.0 0.00 0.00 0.00 68 1013.8
20260505080254 7 0 0.0 0.0 0.00 0.00 0.00 69 1013.8
20260505075754 7 0 0.0 0.0 0.00 0.00 0.00 68 1013.8
20260505075255 7 0 0.0 0.0 0.00 0.00 0.00 68 1013.8
20260505074755 7 0 0.0 0.0 0.00 0.00 0.00 69 1013.8
20260505074255 7 0 0.0 0.0 0.00 0.00 0.00 68 1013.8
20260505073753 7 0 0.0 4.8 0.00 0.00 0.00 69 1013.8
20260505073255 7 0 0.0 4.8 0.00 0.00 0.00 71 1013.8
20260505072755 7 0 0.0 0.0 0.00 0.00 0.00 71 1013.8
20260505072254 7 0 0.0 0.0 0.00 0.00 0.00 71 1013.8
20260505071755 7 0 0.0 4.8 0.00 0.00 0.00 72 1013.8
20260505071255 7 0 0.0 0.0 0.00 0.00 0.00 70 1013.8
20260505070753 7 0 0.0 0.0 0.00 0.00 0.00 71 1013.8
20260505070253 7 0 0.0 0.0 0.00 0.00 0.00 71 1013.8
20260505065755 7 0 0.0 0.0 0.00 0.00 0.00 69 1013.8
20260505065254 7 0 0.0 0.0 0.00 0.00 0.00 70 1013.8
20260505064754 7 0 0.0 0.0 0.00 0.00 0.00 71 1013.8
20260505064254 7 0 0.0 0.0 0.00 0.00 0.00 70 1013.8
20260505063755 7 0 0.0 0.0 0.00 0.00 0.00 69 1013.8
20260505063254 7 0 0.0 0.0 0.00 0.00 0.00 69 1013.8
20260505062754 7 0 0.0 4.8 0.00 0.00 0.00 68 1013.8
20260505062256 7 0 0.0 4.8 0.00 0.00 0.00 67 1013.8
20260505061755 7 0 0.0 4.8 0.00 0.00 0.00 64 1013.8
20260505061255 7 0 0.0 8.0 0.00 0.00 0.00 64 1014.8
20260505060754 7 0 0.0 8.0 0.00 0.00 0.00 63 1014.8
20260505060254 7 0 0.0 0.0 0.00 0.00 0.00 63 1014.8
20260505055753 7 0 0.0 8.0 0.00 0.00 0.00 60 1014.8
20260505055254 8 0 0.0 4.8 0.00 0.00 0.00 56 1014.8
20260505054754 8 0 0.0 8.0 0.00 0.00 0.00 55 1014.8
20260505054254 8 0 0.0 4.8 0.00 0.00 0.00 53 1014.8
20260505053755 8 0 0.0 4.8 0.00 0.00 0.00 52 1014.8
20260505053255 8 0 0.0 4.8 0.00 0.00 0.00 50 1014.8
20260505052755 8 0 0.0 9.7 0.00 0.00 0.00 49 1014.8
20260505052254 8 0 0.0 4.8 0.00 0.00 0.00 48 1014.8
20260505051753 8 0 0.0 4.8 0.00 0.00 0.00 47 1014.8
20260505051255 8 0 0.0 0.0 0.00 0.00 0.00 47 1014.8
20260505050754 8 0 0.0 0.0 0.00 0.00 0.00 46 1014.8
20260505050254 8 68 0.0 0.0 0.00 0.00 0.00 48 1014.8
20260505041754 8 0 0.0 0.0 0.00 0.00 0.00 50 1013.8
20260505041253 8 0 0.0 0.0 0.00 0.00 0.00 50 1013.8
20260505040754 8 0 0.0 0.0 0.00 0.00 0.00 50 1013.8
20260505040254 8 0 0.0 0.0 0.00 0.00 0.00 50 1013.8
20260505035754 8 23 0.0 4.8 0.00 0.00 0.00 49 1013.8
20260505035255 8 0 0.0 9.7 0.00 0.00 0.00 48 1013.8
20260505034755 8 0 4.8 4.8 0.00 0.00 0.00 48 1013.8
20260505034254 8 0 4.8 9.7 0.00 0.00 0.00 48 1013.8
20260505033755 8 68 0.0 8.0 0.00 0.00 0.00 48 1013.8
20260505033255 8 0 0.0 4.8 0.00 0.00 0.00 48 1013.8
20260505032755 8 45 0.0 4.8 0.00 0.00 0.00 47 1013.8
20260505032254 8 0 0.0 4.8 0.00 0.00 0.00 47 1013.8
20260505031754 8 0 0.0 9.7 0.00 0.00 0.00 48 1013.8
20260505031254 8 0 8.0 9.7 0.00 0.00 0.00 48 1013.8
20260505030754 8 23 8.0 9.7 0.00 0.00 0.00 48 1013.8
20260505030254 8 0 4.8 8.0 0.00 0.00 0.00 48 1013.8
20260505025753 8 0 3.2 9.7 0.00 0.00 0.00 49 1013.8
20260505025254 8 0 1.6 9.7 0.00 0.00 0.00 48 1013.8
20260505024754 8 0 1.6 8.0 0.00 0.00 0.00 48 1013.8
20260505024254 8 0 4.8 9.7 0.00 0.00 0.00 48 1013.8
20260505023754 9 0 4.8 9.7 0.00 0.00 0.00 48 1013.8
20260505023254 9 0 4.8 9.7 0.00 0.00 0.00 48 1013.8
20260505022754 9 0 4.8 9.7 0.00 0.00 0.00 49 1013.8
20260505022254 9 0 1.6 9.7 0.00 0.00 0.00 48 1013.8
20260505021754 9 23 0.0 4.8 0.00 0.00 0.00 48 1013.8
20260505021254 9 0 4.8 8.0 0.00 0.00 0.00 47 1013.8
20260505020755 8 0 3.2 9.7 0.00 0.00 0.00 47 1013.8
20260505020255 8 0 4.8 9.7 0.00 0.00 0.00 48 1013.8
20260505015755 9 0 8.0 9.7 0.00 0.00 0.00 47 1013.8
20260505015254 10 0 8.0 12.9 0.00 0.00 0.00 42 1013.8
20260505014754 10 0 0.0 0.0 0.00 0.00 0.00 40 1013.8
20260505014254 10 0 3.2 8.0 0.00 0.00 0.00 39 1013.8
20260505013755 10 23 0.0 0.0 0.00 0.00 0.00 40 1013.8
20260505013255 9 0 0.0 0.0 0.00 0.00 0.00 40 1013.8
20260505012755 10 0 8.0 9.7 0.00 0.00 0.00 40 1013.8
20260505012254 10 0 1.6 9.7 0.00 0.00 0.00 38 1013.8
20260505011754 11 0 8.0 9.7 0.00 0.00 0.00 37 1013.8
20260505011253 12 113 0.0 4.8 0.00 0.00 0.00 36 1012.8
20260505010754 13 45 1.6 9.7 0.00 0.00 0.00 35 1012.8
20260505010254 13 338 0.0 4.8 0.00 0.00 0.00 35 1012.8
20260505005754 13 0 0.0 0.0 0.00 0.00 0.00 35 1012.8
20260505005255 13 23 4.8 8.0 0.00 0.00 0.00 35 1012.8
20260505004755 13 0 4.8 4.8 0.00 0.00 0.00 35 1012.8
20260505004254 13 0 4.8 9.7 0.00 0.00 0.00 35 1011.8
20260505003755 14 0 9.7 14.5 0.00 0.00 0.00 35 1011.8
20260505003255 14 0 8.0 14.5 0.00 0.00 0.00 35 1011.8
20260505002755 14 0 8.0 9.7 0.00 0.00 0.00 35 1011.8
20260505002254 14 0 4.8 9.7 0.00 0.00 0.00 35 1011.8
20260505001755 15 0 9.7 12.9 0.00 0.00 0.00 35 1011.8
20260505001255 15 0 9.7 9.7 0.00 0.00 0.00 35 1011.8
20260505000754 15 0 11.3 12.9 0.00 0.00 0.00 35 1011.8
20260505000254 15 0 9.7 14.5 0.00 0.00 0.00 35 1011.8
20260504235753 16 0 8.0 12.9 0.00 0.00 0.00 35 1011.8
20260504235254 16 0 9.7 9.7 0.00 0.00 0.00 35 1011.8
20260504234754 16 0 9.7 14.5 0.00 0.00 0.00 34 1011.8
20260504234254 16 338 9.7 16.1 0.00 0.00 0.00 34 1011.8
20260504233754 17 338 8.0 14.5 0.00 0.00 0.00 34 1011.8
20260504233254 18 0 0.0 9.7 0.00 0.00 0.00 33 1011.8
20260504232754 18 135 0.0 0.0 0.00 0.00 0.00 33 1011.8
20260504232255 18 0 3.2 8.0 0.00 0.00 0.00 33 1011.8
20260504231754 18 45 0.0 0.0 0.00 0.00 0.00 33 1011.8
20260504231253 18 68 0.0 0.0 0.00 0.00 0.00 33 1011.8
20260504230754 18 68 0.0 0.0 0.00 0.00 0.00 33 1011.8
20260504230254 17 45 0.0 0.0 0.00 0.00 0.00 34 1011.8
20260504225754 17 113 0.0 0.0 0.00 0.00 0.00 34 1011.8
20260504225255 17 135 0.0 0.0 0.00 0.00 0.00 34 1011.8
20260504224754 17 225 0.0 0.0 0.00 0.00 0.00 34 1011.8
20260504224254 17 158 0.0 0.0 0.00 0.00 0.00 34 1011.8
20260504223755 17 225 0.0 0.0 0.00 0.00 0.00 34 1011.8
20260504223255 17 135 1.6 9.7 0.00 0.00 0.00 34 1011.8
20260504222755 17 158 0.0 0.0 0.00 0.00 0.00 34 1011.8
20260504222253 17 0 0.0 0.0 0.00 0.00 0.00 34 1011.8
20260504221755 16 0 0.0 0.0 0.00 0.00 0.00 34 1011.8
20260504221255 16 90 0.0 4.8 0.00 0.00 0.00 34 1011.8
20260504220754 17 45 0.0 0.0 0.00 0.00 0.00 34 1011.8
20260504220254 17 23 0.0 4.8 0.00 0.00 0.00 33 1011.8
20260504215753 18 23 0.0 0.0 0.00 0.00 0.00 33 1011.8
20260504215254 18 113 0.0 8.0 0.00 0.00 0.00 33 1011.8
20260504214754 18 158 0.0 0.0 0.00 0.00 0.00 33 1011.8
20260504214254 18 158 0.0 0.0 0.00 0.00 0.00 33 1011.8
20260504213754 18 0 0.0 4.8 0.00 0.00 0.00 33 1011.8
20260504213254 19 90 3.2 8.0 0.00 0.00 0.00 33 1011.8
20260504212754 19 180 0.0 9.7 0.00 0.00 0.00 33 1011.8
20260504212255 20 113 0.0 9.7 0.00 0.00 0.00 33 1011.8
20260504211755 20 180 0.0 4.8 0.00 0.00 0.00 33 1011.8
20260504211254 20 90 0.0 0.0 0.00 0.00 0.00 33 1010.8
20260504210755 20 90 0.0 0.0 0.00 0.00 0.00 33 1010.8
20260504210255 21 113 0.0 0.0 0.00 0.00 0.00 32 1010.8
20260504205755 21 0 0.0 0.0 0.00 0.00 0.00 32 1011.8
20260504205254 22 158 0.0 0.0 0.00 0.00 0.00 32 1011.8
20260504204753 22 158 0.0 0.0 0.00 0.00 0.00 32 1011.8
20260504204254 21 158 0.0 0.0 0.00 0.00 0.00 32 1011.8
20260504203755 21 158 0.0 0.0 0.00 0.00 0.00 32 1011.8
20260504203255 21 90 0.0 0.0 0.00 0.00 0.00 32 1011.8
20260504202755 21 90 0.0 4.8 0.00 0.00 0.00 32 1011.8
20260504202254 20 113 0.0 0.0 0.00 0.00 0.00 33 1011.8
20260504201753 20 180 0.0 0.0 0.00 0.00 0.00 33 1011.8
20260504201253 19 113 0.0 9.7 0.00 0.00 0.00 33 1011.8
20260504200754 19 0 0.0 4.8 0.00 0.00 0.00 33 1011.8
20260504200254 20 45 0.0 0.0 0.00 0.00 0.00 33 1011.8
20260504195754 20 23 0.0 4.8 0.00 0.00 0.00 33 1011.8
20260504195255 21 90 0.0 4.8 0.00 0.00 0.00 33 1011.8
20260504194756 21 180 0.0 0.0 0.00 0.00 0.00 33 1011.8
20260504194254 21 180 0.0 0.0 0.00 0.00 0.00 32 1011.8
20260504193755 21 180 0.0 0.0 0.00 0.00 0.00 32 1011.8
20260504193255 22 135 0.0 4.8 0.00 0.00 0.00 32 1011.8
20260504192755 22 0 0.0 0.0 0.00 0.00 0.00 32 1011.8
20260504192253 22 113 0.0 0.0 0.00 0.00 0.00 32 1011.8
20260504191753 22 68 0.0 4.8 0.00 0.00 0.00 32 1011.8
20260504191255 22 113 0.0 0.0 0.00 0.00 0.00 32 1011.8
20260504190754 22 113 0.0 0.0 0.00 0.00 0.00 32 1011.8
20260504190254 22 90 0.0 0.0 0.00 0.00 0.00 32 1011.8
20260504185754 21 158 0.0 4.8 0.00 0.00 0.00 32 1011.8
20260504185254 21 135 0.0 4.8 0.00 0.00 0.00 32 1011.8
20260504184754 21 158 0.0 0.0 0.00 0.00 0.00 32 1011.8
20260504184254 21 113 1.6 9.7 0.00 0.00 0.00 32 1012.8
20260504183755 21 135 0.0 4.8 0.00 0.00 0.00 32 1012.8
20260504183254 21 158 0.0 0.0 0.00 0.00 0.00 32 1012.8
20260504182754 22 113 0.0 4.8 0.00 0.00 0.00 32 1012.8
20260504182255 22 113 0.0 0.0 0.00 0.00 0.00 32 1012.8
20260504181755 21 113 0.0 0.0 0.00 0.00 0.00 32 1012.8
20260504181254 21 113 0.0 0.0 0.00 0.00 0.00 32 1012.8
20260504180753 21 135 0.0 0.0 0.00 0.00 0.00 32 1012.8
20260504180255 21 135 0.0 0.0 0.00 0.00 0.00 32 1012.8
20260504175754 21 180 0.0 0.0 0.00 0.00 0.00 32 1012.8
20260504175255 21 113 0.0 4.8 0.00 0.00 0.00 32 1012.8
20260504174755 21 135 0.0 4.8 0.00 0.00 0.00 32 1012.8
20260504174253 21 90 0.0 0.0 0.00 0.00 0.00 32 1012.8
20260504173754 21 90 0.0 0.0 0.00 0.00 0.00 32 1012.8
20260504173254 21 113 0.0 4.8 0.00 0.00 0.00 32 1012.8
20260504172754 21 113 0.0 4.8 0.00 0.00 0.00 32 1012.8
20260504172255 20 113 0.0 4.8 0.00 0.00 0.00 33 1012.8
20260504171754 20 135 0.0 0.0 0.00 0.00 0.00 33 1012.8
20260504171254 20 45 0.0 9.7 0.00 0.00 0.00 33 1013.8
20260504170755 21 158 0.0 4.8 0.00 0.00 0.00 33 1013.8
20260504170255 20 158 0.0 4.8 0.00 0.00 0.00 33 1013.8
20260504160254 17 180 3.2 8.0 0.00 0.00 0.00 34 1013.8
20260504150754 15 0 0.0 4.8 0.00 0.00 0.00 35 1013.8
20260504150253 15 0 0.0 9.7 0.00 0.00 0.00 35 1013.8